Location: Cantaing
(50.1487°N, 3.1675°E)
Time: 16:11:59
(UTC+00:00)

ISS - Pass Details

Date: 15 March 2026
Orbit: 416 x 425 km, 51.6° (Epoch: 18 April)

Event Time Altitude Azimuth Distance (km) Brightness Sun altitude
Rises 18:42:40 0° 233° (SW) 2,380 0.8 -8.9°
Reaches altitude 10° 18:44:48 10° 228° (SW) 1,515 -0.3 -9.2°
Maximum altitude 18:48:05 48° 153° (SSE) 567 -3.4 -9.8°
Enters shadow 18:50:47 14° 81° (E) 1,282 -1.9 -10.2°
